DateTime,F1_A11,F1_S11,BsB_S11,BsG_S11,BsR_S11,BbsB_S11,BbsG_S11,BbsR_S11,BaB_A11,BaG_A11,BaR_A11,T_S11,U_S11,P_S11,T1_A11
2016-09-24T00:00:00Z,0000380,21000600,,,,,,,,,,27.5,00.0,0662.2,34.8
2016-09-24T00:01:00Z,0000380,21000600,,,,,,,,,,27.5,00.0,0662.2,34.8
2016-09-24T00:02:00Z,0000380,21000600,,,,,,,,,,27.5,00.0,0662.2,34.8
2016-09-24T00:03:00Z,0000380,61000600,,,,,,,,,,27.6,00.0,0662.2,34.8
2016-09-24T00:04:00Z,0000380,41000600,0001.34,0001.10,0000.36,0000.02,0000.05,-000.14,0000.07,-000.07,-000.20,27.7,00.0,0663.3,34.8
2016-09-24T00:05:00Z,0000380,01000600,0000.35,-000.25,0000.20,0000.59,-000.21,-000.06,-000.07,0000.15,0000.16,27.6,00.0,0663.4,34.8
2016-09-24T00:06:00Z,0000380,01000600,0000.61,0000.16,0000.35,0000.30,0000.00,-000.08,0000.06,0000.06,-000.15,27.6,00.0,0663.4,34.8
2016-09-24T00:07:00Z,0000380,01000600,0000.43,0000.38,0000.21,-000.37,-000.35,0000.21,0000.03,0000.02,0000.18,27.6,00.0,0663.3,34.8
2016-09-24T00:08:00Z,0000380,01000600,0001.16,0000.23,0000.33,0000.29,0000.16,-000.13,-000.06,-000.10,0000.07,27.6,00.0,0663.3,34.8
2016-09-24T00:09:00Z,0000380,01000600,0000.20,0000.09,0000.38,0000.19,-000.02,-000.34,0000.05,-000.03,0000.02,27.5,00.0,0663.3,34.8
2016-09-24T00:10:00Z,0000380,01000600,0000.50,0000.02,0000.39,0000.03,0000.22,-000.26,0000.11,0000.03,-000.09,27.5,00.0,0663.4,34.8
2016-09-24T00:11:00Z,0000380,01000600,0001.23,0000.51,0000.13,0000.21,0000.64,-000.06,0000.01,-000.03,0000.06,27.5,00.0,0663.3,34.8
2016-09-24T00:12:00Z,0000380,01000600,0000.19,0000.07,0000.47,0000.35,-000.22,0000.11,-000.03,0000.09,-000.11,27.5,00.0,0663.3,34.8
2016-09-24T00:13:00Z,0000380,01000600,-000.08,0000.16,-000.27,-000.10,0000.16,-000.56,0000.03,0000.08,0000.34,27.5,00.0,0663.3,34.8
2016-09-24T00:14:00Z,0000380,01000600,-000.60,0000.33,0000.27,0000.64,0000.32,-000.13,0000.22,0000.03,-000.36,27.5,00.0,0663.3,34.8
2016-09-24T00:15:00Z,0000380,01000600,0000.55,0000.41,0000.59,0000.37,0000.45,0000.10,-000.15,0000.09,0000.09,27.5,00.0,0663.3,34.7
2016-09-24T00:16:00Z,0000380,01000600,0000.96,0000.92,0001.11,-000.11,-000.22,-000.02,0000.03,-000.14,0000.32,27.5,00.0,0663.3,34.7
2016-09-24T00:17:00Z,0000380,01000600,-000.14,0000.02,0000.56,0000.42,0000.24,0000.10,0000.27,0000.09,-000.21,27.5,00.0,0663.3,34.7
2016-09-24T00:18:00Z,0000380,01000600,0001.32,0000.94,-000.19,0001.05,0000.27,-000.13,-000.27,-000.00,-000.12,27.4,00.0,0663.3,34.7
2016-09-24T00:19:00Z,0000380,01000600,0000.96,0000.92,0000.47,0000.34,0000.00,-000.22,-000.10,0000.04,0000.23,27.4,00.0,0663.3,34.7
2016-09-24T00:20:00Z,0000380,01000600,0001.02,-000.03,-000.12,0000.16,0000.33,0000.06,0000.36,0000.08,0000.07,27.4,00.0,0663.3,34.7
2016-09-24T00:21:00Z,0000380,01000600,0000.86,-000.09,-000.18,0000.80,0000.59,-000.02,-000.11,0000.03,-000.11,27.3,00.0,0663.3,34.7
2016-09-24T00:22:00Z,0000380,01000600,-000.17,-000.33,0000.08,0000.08,0000.56,0000.08,0000.01,0000.17,-000.07,27.3,00.0,0663.2,34.7
2016-09-24T00:23:00Z,0000380,01000600,0000.93,0000.25,0000.43,0000.56,0000.57,0000.06,0000.32,-000.17,0000.13,27.3,00.0,0663.2,34.7
2016-09-24T00:24:00Z,0000380,01000600,-000.13,0000.06,0000.67,-000.50,0000.13,0000.02,-000.06,0000.18,0000.05,27.3,00.0,0663.3,34.7
2016-09-24T00:25:00Z,0000380,01000600,0001.03,0000.53,0000.56,0000.34,-000.03,-000.02,-000.18,-000.15,0000.07,27.3,00.0,0663.3,34.7
2016-09-24T00:26:00Z,0000380,01000600,0000.95,0000.20,-000.22,0000.26,0000.16,-000.11,0000.19,0000.19,0000.08,27.3,00.0,0663.3,34.7
2016-09-24T00:27:00Z,0000380,01000600,-000.13,-000.05,0000.53,-000.35,0000.51,0000.10,0000.07,-000.06,-000.13,27.3,00.1,0663.2,34.7
2016-09-24T00:28:00Z,0000380,01000600,0000.29,-000.04,0000.28,-000.26,0000.19,0000.21,-000.11,0000.08,-000.06,27.3,00.0,0663.3,34.7
2016-09-24T00:29:00Z,0000380,01000600,0000.15,-000.32,0000.50,0000.22,-000.25,0000.06,0000.07,0000.15,0000.03,27.2,00.0,0663.3,34.7
2016-09-24T00:30:00Z,0000380,01000600,0000.88,-000.14,-000.17,-000.10,0000.25,-000.08,0000.14,0000.02,0000.21,27.2,00.0,0663.3,34.7
2016-09-24T00:31:00Z,0000380,01000600,-000.44,0000.45,-000.04,0000.40,-000.10,-000.42,0000.07,0000.02,-000.05,27.2,00.0,0663.3,34.7
2016-09-24T00:32:00Z,0000380,01000600,0000.46,0000.66,0000.03,-000.24,0000.13,0000.14,-000.11,-000.02,0000.10,27.2,00.0,0663.3,34.7
2016-09-24T00:33:00Z,0000380,01000600,-000.02,-000.39,0000.57,-000.08,0000.35,-000.24,0000.28,0000.03,0000.08,27.2,00.0,0663.3,34.7
2016-09-24T00:34:00Z,0000380,01000600,0000.65,0000.36,0000.02,-000.03,0000.27,-000.18,-000.30,-000.02,-000.12,27.2,00.1,0663.2,34.7
2016-09-24T00:35:00Z,0000380,01000600,0000.30,-000.17,0000.57,0000.06,-000.02,-000.18,0000.28,-000.09,-000.14,27.2,00.1,0663.2,34.7
2016-09-24T00:36:00Z,0000380,01000600,0000.39,0000.28,0000.46,0000.14,0000.56,-000.26,0000.01,0000.22,0000.44,27.1,00.1,0663.2,34.7
2016-09-24T00:37:00Z,0000380,01000600,0000.11,-000.08,0000.31,0000.00,-000.24,-000.35,-000.04,-000.03,-000.13,27.1,00.1,0663.2,34.7
2016-09-24T00:38:00Z,0000380,01000600,0000.29,0000.30,-000.24,0000.46,-000.02,-000.27,-000.08,-000.05,0000.11,27.1,00.1,0663.2,34.7
2016-09-24T00:39:00Z,0000380,01000600,0000.18,-000.18,-000.12,0000.03,-000.10,0000.21,0000.19,0000.12,0000.08,27.1,00.1,0663.2,34.7
2016-09-24T00:40:00Z,0000380,01000600,0000.12,0000.17,0000.41,-000.32,0000.17,0000.35,-000.09,0000.00,0000.08,27.0,00.1,0663.2,34.7
2016-09-24T00:41:00Z,0000380,01000600,0000.89,0000.00,0000.42,0000.49,0000.08,-000.08,0000.17,0000.16,-000.14,27.0,00.1,0663.2,34.7
2016-09-24T00:42:00Z,0000380,01000600,0000.72,0000.78,0000.05,-000.03,0000.13,-000.21,0000.05,-000.10,0000.07,27.0,00.1,0663.2,34.7
2016-09-24T00:43:00Z,0000380,01000600,0000.87,0000.00,-000.34,0000.08,0000.33,-000.19,-000.02,0000.24,0000.28,27.0,00.1,0663.2,34.7
2016-09-24T00:44:00Z,0000380,01000600,-000.33,0000.10,0000.35,0000.49,0000.03,0000.40,-000.10,0000.02,-000.07,27.0,00.1,0663.2,34.7
2016-09-24T00:45:00Z,0000380,01000600,0000.31,0000.18,-000.39,0000.05,0000.13,-000.24,0000.13,-000.09,-000.18,27.0,00.1,0663.2,34.7
2016-09-24T00:46:00Z,0000380,01000600,-000.37,-000.11,0000.38,0000.18,0000.48,0000.08,0000.06,0000.07,-000.02,27.0,00.1,0663.2,34.7
2016-09-24T00:47:00Z,0000380,01000600,-000.16,0000.70,0000.05,0000.53,0000.14,-000.48,0000.04,0000.03,0000.32,27.0,00.1,0663.2,34.7
2016-09-24T00:48:00Z,0000380,01000600,0000.30,-000.30,0000.33,0000.34,0000.22,0000.06,0000.04,0000.19,-000.04,27.0,00.1,0663.2,34.7
2016-09-24T00:49:00Z,0000380,01000600,0000.09,-000.24,0000.79,0000.00,0000.11,-000.27,0000.05,0000.04,-000.01,27.0,00.1,0663.2,34.7
2016-09-24T00:50:00Z,0000380,01000600,0000.28,0000.69,0000.17,0000.61,0000.24,-000.35,0000.16,-000.08,-000.17,27.0,00.1,0663.2,34.7
2016-09-24T00:51:00Z,0000380,01000600,0000.30,0000.33,-000.19,-000.03,0000.19,-000.26,0000.01,0000.03,0000.33,27.0,00.1,0663.2,34.7
2016-09-24T00:52:00Z,0000380,01000600,0000.68,-000.09,0000.60,-000.38,0000.13,0000.03,-000.10,0000.05,-000.05,27.0,00.1,0663.1,34.7
2016-09-24T00:53:00Z,0000380,01000600,-000.16,0000.10,0000.54,-000.38,0000.02,0000.00,0000.27,0000.05,0000.37,27.0,00.1,0663.2,34.7
2016-09-24T00:54:00Z,0000380,01000600,0001.09,0000.18,-000.04,0000.48,-000.05,0000.00,-000.08,0000.04,-000.40,27.0,00.1,0663.2,34.7
2016-09-24T00:55:00Z,0000380,01000600,0000.49,0000.35,0000.13,-000.18,0000.37,-000.10,-000.05,0000.10,0000.28,27.0,00.1,0663.2,34.7
2016-09-24T00:56:00Z,0000380,01000600,0000.73,0000.16,0000.85,0000.46,0000.25,0000.34,0000.16,-000.16,-000.02,27.0,00.1,0663.2,34.7
2016-09-24T00:57:00Z,0000380,41000600,,,,,,,,,,,,0663.1,34.7
2016-09-24T00:58:00Z,0000380,61000600,,,,,,,,,,27.0,00.0,0662.1,34.7
2016-09-24T00:59:00Z,0000380,21000600,,,,,,,,,,27.0,00.0,0662.1,34.7
2016-09-24T01:00:00Z,0000380,21000600,,,,,,,,,,27.0,00.0,0662.1,34.7
2016-09-24T01:01:00Z,0000380,21000600,,,,,,,,,,27.0,00.0,0662.1,34.7
2016-09-24T01:02:00Z,0000380,21000600,,,,,,,,,,27.0,00.0,0662.1,34.7
2016-09-24T01:03:00Z,0000380,61000600,,,,,,,,,,27.0,00.0,0662.1,34.7
2016-09-24T01:04:00Z,0000380,41000600,0001.39,0001.05,0000.32,-000.05,0000.13,-000.21,0000.01,0000.14,-000.04,27.1,00.1,0663.1,34.7
2016-09-24T01:05:00Z,0000380,01000600,0001.43,0000.98,0000.84,-000.08,-000.40,0000.37,0000.08,-000.06,0000.13,27.1,00.1,0663.2,34.7
2016-09-24T01:06:00Z,0000380,01000600,0000.87,0000.31,-000.03,0000.30,0000.06,-000.02,0000.03,0000.08,0000.23,27.1,00.1,0663.2,34.7
2016-09-24T01:07:00Z,0000380,01000600,0000.74,-000.54,0000.00,0000.81,-000.53,-000.11,0000.06,-000.12,-000.09,27.2,00.1,0663.2,34.7
2016-09-24T01:08:00Z,0000380,01000600,0000.64,0000.53,0000.02,0000.42,-000.13,-000.08,-000.07,0000.11,0000.20,27.1,00.1,0663.2,34.7
2016-09-24T01:09:00Z,0000380,01000600,0001.03,0000.16,0000.08,-000.38,0000.22,0000.21,0000.16,0000.02,-000.05,27.1,00.1,0663.2,34.7
2016-09-24T01:10:00Z,0000380,01000600,0000.61,0000.10,0000.15,-000.46,0000.03,0000.18,0000.00,0000.08,0000.29,27.2,00.1,0663.2,34.7
2016-09-24T01:11:00Z,0000380,01000600,0000.48,0000.49,0000.20,-000.45,0000.22,0000.11,-000.17,0000.01,-000.39,27.2,00.1,0663.2,34.7
2016-09-24T01:12:00Z,0000380,01000600,0000.98,-000.02,-000.10,0000.50,0000.22,0000.05,0000.11,0000.13,0000.34,27.2,00.1,0663.3,34.7
2016-09-24T01:13:00Z,0000380,01000600,0000.68,0000.17,0000.08,0000.08,-000.22,-000.21,0000.08,-000.10,-000.29,27.2,00.2,0663.3,34.7
2016-09-24T01:14:00Z,0000380,01000600,0000.58,0000.44,0000.76,0000.16,-000.21,0000.18,-000.29,0000.10,0000.27,27.2,00.1,0663.3,34.7
2016-09-24T01:15:00Z,0000380,01000600,0001.13,-000.10,-000.18,0000.00,0000.13,0000.10,0000.31,-000.08,-000.21,27.2,00.1,0663.3,34.8
2016-09-24T01:16:00Z,0000380,01000600,-000.17,0000.14,0000.45,-000.70,0000.00,0000.00,0000.07,0000.16,0000.18,27.2,00.1,0663.3,34.8
2016-09-24T01:17:00Z,0000380,01000600,0000.46,0000.40,0000.61,0000.08,-000.41,0000.45,-000.16,-000.02,-000.01,27.3,00.1,0663.3,34.8
2016-09-24T01:18:00Z,0000380,01000600,0000.18,0000.19,0000.44,-000.35,0000.02,0000.19,0000.03,0000.18,0000.13,27.3,00.1,0663.3,34.8
2016-09-24T01:19:00Z,0000380,01000600,0001.09,0001.01,0000.48,0000.08,0000.35,-000.08,0000.09,-000.05,-000.16,27.3,00.1,0663.3,34.8
2016-09-24T01:20:00Z,0000380,01000600,0000.50,0000.99,0000.19,-000.18,0000.00,0000.06,0000.09,0000.21,0000.21,27.3,00.1,0663.3,34.8
2016-09-24T01:21:00Z,0000380,01000600,0000.47,0000.20,-000.02,0000.16,-000.14,-000.29,-000.13,-000.14,-000.05,27.3,00.1,0663.3,34.8
2016-09-24T01:22:00Z,0000380,01000600,0000.82,0000.88,0000.02,-000.66,-000.02,0000.05,0000.17,0000.03,0000.14,27.3,00.1,0663.3,34.8
2016-09-24T01:23:00Z,0000380,01000600,0000.64,0000.03,-000.22,-000.90,-000.43,-000.14,0000.04,0000.14,0000.22,27.4,00.1,0663.3,34.8
2016-09-24T01:24:00Z,0000380,01000600,0000.90,0000.29,0000.57,-000.03,-000.54,0000.18,-000.13,0000.04,-000.29,27.4,00.1,0663.3,34.8
2016-09-24T01:25:00Z,0000380,01000600,0001.46,0000.28,0000.51,-000.42,0000.03,0000.02,0000.29,0000.08,0000.45,27.4,00.1,0663.3,34.8
2016-09-24T01:26:00Z,0000380,01000600,0000.87,0000.19,0000.18,-000.34,0000.21,-000.35,-000.01,0000.02,-000.40,27.4,00.1,0663.3,34.8
2016-09-24T01:27:00Z,0000380,01000600,0000.79,0000.47,0000.33,0000.19,-000.16,0000.03,0000.08,-000.07,0000.17,27.5,00.1,0663.4,34.8
2016-09-24T01:28:00Z,0000380,01000600,0000.51,0000.14,0000.04,0000.40,0000.00,-000.40,-000.03,0000.11,0000.27,27.5,00.1,0663.3,34.8
2016-09-24T01:29:00Z,0000380,01000600,0001.43,0000.29,0000.37,-000.32,0000.46,0000.14,-000.04,-000.05,-000.23,27.5,00.2,0663.3,34.8
2016-09-24T01:30:00Z,0000380,01000600,0000.19,0000.28,0000.51,0000.19,-000.24,0000.21,0000.06,0000.16,0000.24,27.5,00.1,0663.4,34.8
2016-09-24T01:31:00Z,0000380,01000600,0000.46,0000.16,0000.31,-000.53,-000.35,-000.03,-000.01,-000.01,0000.13,27.5,00.1,0663.3,34.8
2016-09-24T01:32:00Z,0000380,01000600,0000.74,0000.57,0000.00,0000.08,-000.24,0000.13,0000.09,0000.08,-000.24,27.5,00.1,0663.3,34.8
2016-09-24T01:33:00Z,0000380,01000600,0001.36,0000.64,0000.52,-000.18,0000.03,0000.11,0000.04,0000.00,0000.17,27.6,00.1,0663.3,34.8
2016-09-24T01:34:00Z,0000380,01000600,0000.54,0000.88,0000.22,0000.00,-000.41,0000.26,-000.00,0000.00,-000.41,27.6,00.1,0663.3,34.8
2016-09-24T01:35:00Z,0000380,01000600,0002.13,0000.49,0000.70,0000.16,0000.18,0000.02,0000.22,0000.04,0000.19,27.6,00.1,0663.4,34.8
2016-09-24T01:36:00Z,0000380,01000600,0000.58,0000.57,0000.62,-000.05,0000.00,0000.13,-000.09,0000.11,0000.31,27.7,00.1,0663.4,34.8
2016-09-24T01:37:00Z,0000380,01000600,0000.20,0000.66,-000.22,-000.30,-000.02,0000.18,-000.14,-000.01,0000.13,27.7,00.1,0663.3,34.8
2016-09-24T01:38:00Z,0000380,01000600,0000.74,0000.19,0000.08,0000.42,0000.24,0000.03,0000.06,0000.02,-000.29,27.7,00.1,0663.4,34.8
2016-09-24T01:39:00Z,0000380,01000600,0001.10,0000.50,0000.27,-000.19,0000.25,0000.03,-000.06,0000.05,-000.10,27.7,00.2,0663.3,34.8
2016-09-24T01:40:00Z,0000380,01000600,0000.56,0000.42,0000.22,-000.22,-000.16,-000.08,0000.08,0000.15,0000.26,27.8,00.1,0663.3,34.8
2016-09-24T01:41:00Z,0000380,01000600,0001.09,0000.69,-000.27,0000.03,0000.53,-000.21,0000.26,-000.25,0000.01,27.8,00.1,0663.3,34.8
2016-09-24T01:42:00Z,0000380,01000600,0001.18,0000.72,0000.54,0000.06,0000.00,0000.14,-000.15,0000.15,0000.18,27.8,00.2,0663.4,34.8
2016-09-24T01:43:00Z,0000380,01000600,0000.39,-000.14,0000.56,-000.21,0000.18,0000.08,0000.15,0000.02,-000.05,27.8,00.1,0663.4,34.8
2016-09-24T01:44:00Z,0000380,01000600,0001.06,0000.41,0000.37,0000.14,0000.06,-000.06,0000.21,0000.10,-000.05,27.8,00.2,0663.3,34.8
2016-09-24T01:45:00Z,0000380,01000600,0000.60,0000.47,0000.52,-000.14,-000.46,0000.30,-000.11,0000.02,0000.11,27.8,00.1,0663.4,34.8
2016-09-24T01:46:00Z,0000380,01000600,0001.22,0000.05,0000.77,0000.19,0000.05,0000.16,0000.03,-000.03,0000.07,27.8,00.2,0663.4,34.8
2016-09-24T01:47:00Z,0000380,01000600,0001.22,0000.61,0000.42,-000.16,-000.03,0000.29,0000.15,0000.09,-000.21,27.8,00.2,0663.4,34.8
2016-09-24T01:48:00Z,0000380,01000600,-000.08,0000.27,0000.17,-000.26,0000.06,-000.08,-000.12,-000.07,-000.34,27.8,00.1,0663.4,34.8
2016-09-24T01:49:00Z,0000380,01000600,0001.38,0001.10,-000.02,0000.24,-000.51,-000.05,-000.05,-000.15,0000.19,27.8,00.1,0663.4,34.8
2016-09-24T01:50:00Z,0000380,01000600,0000.72,0000.32,0000.37,0000.03,0000.18,0000.21,-000.05,0000.16,-000.25,27.8,00.1,0663.4,34.8
2016-09-24T01:51:00Z,0000380,01000600,-000.49,0000.13,0000.70,-000.22,-000.19,0000.16,0000.18,-000.05,0000.29,27.8,00.1,0663.4,34.8
2016-09-24T01:52:00Z,0000380,01000600,0000.23,0000.19,0000.38,0000.62,-000.11,-000.11,-000.10,-000.18,-000.09,27.8,00.1,0663.4,34.8
2016-09-24T01:53:00Z,0000380,01000600,0000.12,0000.30,0000.81,0000.24,-000.35,-000.18,-000.01,0000.17,-000.01,27.8,00.1,0663.4,34.8
2016-09-24T01:54:00Z,0000380,01000600,0000.33,0000.84,0001.02,0000.48,0000.40,0000.19,0000.02,-000.10,-000.02,27.7,00.1,0663.4,34.8
2016-09-24T01:55:00Z,0000380,01000600,0000.82,0000.27,-000.04,0000.02,-000.30,-000.37,0000.24,0000.22,-000.03,27.7,00.2,0663.4,34.8
2016-09-24T01:56:00Z,0000380,01000600,0000.92,0000.69,0000.16,0000.46,-000.27,0000.27,-000.13,-000.22,-000.14,27.7,00.1,0663.4,34.8
2016-09-24T01:57:00Z,0000380,41000600,,,,,,,,,,,,0663.4,34.8
2016-09-24T01:58:00Z,0000380,61000600,,,,,,,,,,27.5,00.1,0662.3,34.8
2016-09-24T01:59:00Z,0000380,21000600,,,,,,,,,,27.5,00.0,0662.3,34.8
2016-09-24T02:00:00Z,0000380,21000600,,,,,,,,,,27.5,00.0,0662.3,34.8
2016-09-24T02:01:00Z,0000380,21000600,,,,,,,,,,27.5,00.0,0662.3,34.8
2016-09-24T02:02:00Z,0000380,21000600,,,,,,,,,,27.5,00.0,0662.3,34.8
2016-09-24T02:03:00Z,0000380,61000600,,,,,,,,,,27.6,00.0,0662.3,34.8
2016-09-24T02:04:00Z,0000380,41000600,0000.60,0000.45,0000.78,-000.74,-000.02,0000.18,0000.07,-000.03,0000.11,27.7,00.1,0663.4,34.8
2016-09-24T02:05:00Z,0000380,01000600,0000.31,0000.56,0000.06,-000.05,-000.37,0000.08,-000.01,0000.06,-000.07,27.7,00.1,0663.4,34.8
2016-09-24T02:06:00Z,0000380,01000600,0000.67,0000.61,0000.36,0000.08,0000.22,-000.02,0000.07,-000.02,-000.16,27.7,00.2,0663.4,34.8
2016-09-24T02:07:00Z,0000380,01000600,0000.16,0000.48,0000.24,0000.03,0000.18,0000.53,0000.26,0000.10,0000.45,27.7,00.1,0663.5,34.8
2016-09-24T02:08:00Z,0000380,01000600,0000.04,0000.49,0000.35,-000.90,-000.33,0000.19,-000.23,-000.08,-000.20,27.7,00.1,0663.5,34.8
2016-09-24T02:09:00Z,0000380,01000600,-000.22,0000.08,0000.22,-000.53,0000.24,0000.27,0000.23,0000.21,0000.50,27.7,00.1,0663.5,34.8
2016-09-24T02:10:00Z,0000380,01000600,0000.17,0000.16,0000.13,-000.24,0000.19,0000.00,-000.05,-000.00,-000.36,27.7,00.1,0663.5,34.8
2016-09-24T02:11:00Z,0000380,01000600,0000.52,0000.14,0000.29,0000.45,-000.43,0000.08,0000.07,-000.14,-000.13,27.6,00.1,0663.5,34.8
2016-09-24T02:12:00Z,0000380,01000600,0000.88,-000.22,0000.44,0000.14,-000.06,0000.53,0000.07,0000.11,0000.07,27.5,00.1,0663.5,34.8
2016-09-24T02:13:00Z,0000380,01000600,0000.68,0000.04,0000.11,-000.16,0000.35,-000.03,0000.15,-000.00,0000.04,27.6,00.1,0663.4,34.8
2016-09-24T02:14:00Z,0000380,01000600,0001.08,0000.34,-000.32,-000.10,0000.10,0000.06,-000.33,0000.09,-000.23,27.5,00.1,0663.4,34.8
2016-09-24T02:15:00Z,0000380,01000600,0000.35,0000.14,0000.75,0000.53,0000.16,0000.54,0000.06,0000.00,0000.45,27.6,00.1,0663.4,34.7
2016-09-24T02:16:00Z,0000380,01000600,0000.10,0000.07,0000.28,-000.32,-000.25,-000.10,0000.09,0000.18,0000.01,27.5,00.2,0663.5,34.7
2016-09-24T02:17:00Z,0000380,01000600,-001.39,0000.11,0000.39,0000.30,0000.13,0000.05,0000.13,-000.18,-000.15,27.5,00.2,0663.5,34.7
2016-09-24T02:18:00Z,0000380,01000600,0000.54,0000.08,0001.02,-000.40,-000.18,0000.32,-000.17,0000.19,0000.03,27.6,00.2,0663.5,34.7
2016-09-24T02:19:00Z,0000380,01000600,0000.86,0000.17,-000.12,-000.16,-000.16,-000.11,0000.24,-000.09,0000.13,27.6,00.2,0663.5,34.7
2016-09-24T02:20:00Z,0000380,01000600,0000.30,0000.15,0000.66,0000.08,0000.06,0000.19,-000.15,0000.16,0000.00,27.6,00.1,0663.5,34.7
2016-09-24T02:21:00Z,0000380,01000600,0000.09,0000.70,0000.43,-000.69,0000.35,0000.19,0000.11,0000.04,-000.37,27.6,00.1,0663.5,34.7
2016-09-24T02:22:00Z,0000380,01000600,0000.00,0000.92,0000.29,-000.58,-001.00,0000.16,-000.01,-000.15,0000.40,27.6,00.1,0663.5,34.7
2016-09-24T02:23:00Z,0000380,01000600,0000.76,-000.15,0000.23,0000.10,0000.29,0000.13,-000.04,0000.20,-000.01,27.6,00.2,0663.5,34.7
2016-09-24T02:24:00Z,0000380,01000600,0000.28,0000.25,0000.29,-000.14,0000.29,0000.29,0000.20,0000.00,0000.02,27.6,00.2,0663.5,34.7
2016-09-24T02:25:00Z,0000380,01000600,0000.14,0000.78,0000.86,-000.35,0000.41,0000.03,-000.00,-000.08,0000.19,27.6,00.2,0663.5,34.7
2016-09-24T02:26:00Z,0000380,01000600,0000.53,-000.12,0000.78,-000.62,-000.08,0000.08,0000.05,0000.08,-000.30,27.6,00.2,0663.5,34.7
2016-09-24T02:27:00Z,0000380,01000600,0000.51,0000.35,0000.49,0000.67,0000.46,0000.27,-000.03,0000.10,0000.27,27.6,00.1,0663.5,34.7
2016-09-24T02:28:00Z,0000380,01000600,0000.90,-000.32,-000.38,-001.02,0000.43,-000.27,0000.03,-000.06,-000.22,27.5,00.1,0663.5,34.7
2016-09-24T02:29:00Z,0000380,01000600,0000.59,0000.16,0000.53,-000.64,0000.30,0000.32,0000.10,-000.06,0000.12,27.5,00.2,0663.5,34.7
2016-09-24T02:30:00Z,0000380,01000600,-000.19,0000.13,0000.08,0000.53,-000.13,0000.18,0000.05,0000.19,-000.03,27.5,00.2,0663.4,34.7
2016-09-24T02:31:00Z,0000380,01000600,0000.17,0000.15,0000.52,-000.13,-000.05,0000.26,-000.15,-000.03,-000.02,27.5,00.2,0663.4,34.7
2016-09-24T02:32:00Z,0000380,01000600,0000.29,0000.39,0000.04,0000.00,0000.35,-000.30,-000.00,-000.12,0000.31,27.5,00.2,0663.5,34.7
2016-09-24T02:33:00Z,0000380,01000600,0000.37,-000.04,0000.67,0000.21,-000.33,0000.48,0000.30,0000.36,-000.11,27.5,00.2,0663.5,34.7
2016-09-24T02:34:00Z,0000380,01000600,0000.77,0000.05,-000.06,-000.58,0000.13,0000.29,-000.21,-000.17,-000.08,27.5,00.2,0663.4,34.7
2016-09-24T02:35:00Z,0000380,01000600,0000.43,0000.73,0000.00,-000.35,0000.19,0000.16,0000.23,-000.07,-000.04,27.5,00.2,0663.4,34.7
2016-09-24T02:36:00Z,0000380,01000600,0000.82,0000.28,-000.12,0000.53,-000.29,0000.35,-000.01,0000.09,0000.22,27.5,00.1,0663.4,34.7
2016-09-24T02:37:00Z,0000380,01000600,-000.43,0000.00,0000.21,0000.40,0000.00,-000.26,0000.22,0000.22,0000.00,27.5,00.2,0663.4,34.7
2016-09-24T02:38:00Z,0000380,01000600,0000.21,0000.29,0000.21,-000.14,0000.32,0000.24,-000.12,0000.03,0000.48,27.5,00.2,0663.4,34.7
2016-09-24T02:39:00Z,0000380,01000600,0000.36,-000.42,0000.37,0000.24,-000.27,0000.37,-000.06,0000.02,-000.14,27.5,00.2,0663.4,34.7
2016-09-24T02:40:00Z,0000380,01000600,0000.55,0000.00,0000.82,0000.00,-000.32,0000.30,0000.09,0000.04,-000.19,27.5,00.1,0663.4,34.7
2016-09-24T02:41:00Z,0000380,01000600,0000.76,0000.55,0000.18,-000.05,0000.24,0000.51,0000.21,0000.10,0000.03,27.5,00.2,0663.4,34.7
2016-09-24T02:42:00Z,0000380,01000600,0001.00,0000.29,-000.26,-000.29,-000.03,-000.16,-000.24,-000.21,-000.30,27.5,00.2,0663.5,34.7
2016-09-24T02:43:00Z,0000380,01000600,-000.13,0000.12,-000.06,0000.35,0000.14,-000.05,0000.03,0000.07,0000.53,27.6,00.1,0663.5,34.7
2016-09-24T02:44:00Z,0000380,01000600,0000.82,0000.45,0000.28,-000.59,0000.41,0000.11,0000.18,0000.26,-000.02,27.5,00.1,0663.4,34.7
2016-09-24T02:45:00Z,0000380,01000600,0000.29,0001.18,-000.38,0000.05,-000.06,0000.16,0000.05,-000.17,-000.12,27.6,00.2,0663.4,34.8
2016-09-24T02:46:00Z,0000380,01000600,-000.27,0000.35,0000.04,-000.10,0000.18,0000.22,0000.07,0000.14,0000.11,27.6,00.2,0663.4,34.8
2016-09-24T02:47:00Z,0000380,01000600,0000.71,0000.15,0000.29,-000.05,-000.25,0000.16,0000.09,-000.08,-000.06,27.6,00.2,0663.4,34.8
2016-09-24T02:48:00Z,0000380,01000600,0000.91,0000.64,0000.17,-000.13,0000.03,0000.30,-000.28,-000.03,-000.37,27.5,00.2,0663.4,34.8
2016-09-24T02:49:00Z,0000380,01000600,0001.13,0000.52,0000.22,0000.37,0000.08,-000.06,0000.06,-000.07,0000.28,27.5,00.2,0663.5,34.8
2016-09-24T02:50:00Z,0000380,01000600,0000.40,-000.33,0000.29,0000.67,-000.57,0000.58,0000.15,0000.03,0000.21,27.5,00.2,0663.5,34.8
2016-09-24T02:51:00Z,0000380,01000600,0000.43,-000.29,0000.00,0000.48,-000.18,0000.43,0000.16,0000.05,-000.39,27.5,00.2,0663.5,34.8
2016-09-24T02:52:00Z,0000380,01000600,0000.18,0000.07,0000.24,-000.35,-000.03,0000.11,-000.06,0000.06,0000.23,27.5,00.2,0663.5,34.8
2016-09-24T02:53:00Z,0000380,01000600,0000.03,-000.16,0000.05,0000.02,-000.24,0000.53,0000.08,0000.01,0000.03,27.5,00.2,0663.5,34.8
2016-09-24T02:54:00Z,0000380,01000600,0000.19,0000.00,0000.59,-000.27,0000.14,0000.11,-000.13,0000.04,0000.05,27.4,00.2,0663.5,34.8
2016-09-24T02:55:00Z,0000380,01000600,0000.90,0000.46,0000.12,0000.51,-000.03,0000.14,0000.16,0000.00,-000.25,27.4,00.1,0663.5,34.8
2016-09-24T02:56:00Z,0000380,01000600,0000.67,-000.04,0000.58,0000.34,0000.17,0000.14,-000.02,0000.09,0000.48,27.3,00.1,0663.5,34.8
2016-09-24T02:57:00Z,0000380,41000600,,,,,,,,,,,,0663.5,34.8
2016-09-24T02:58:00Z,0000380,61000600,,,,,,,,,,27.3,00.1,0662.4,34.8
2016-09-24T02:59:00Z,0000380,21000600,,,,,,,,,,27.3,00.1,0662.4,34.8
2016-09-24T03:00:00Z,0000380,21000600,,,,,,,,,,27.3,00.1,0662.4,34.7
2016-09-24T03:01:00Z,0000380,21000600,,,,,,,,,,27.3,00.1,0662.4,34.7
2016-09-24T03:02:00Z,0000380,21000600,,,,,,,,,,27.3,00.1,0662.4,34.7
2016-09-24T03:03:00Z,0000380,61000600,,,,,,,,,,27.4,00.1,0662.4,34.7
2016-09-24T03:04:00Z,0000380,41000600,0000.35,-000.55,0000.71,0000.05,-000.03,0000.37,0000.01,0000.18,0000.09,27.5,00.2,0663.4,34.7
2016-09-24T03:05:00Z,0000380,01000600,0000.67,-000.16,0000.50,0000.08,-000.08,0000.08,0000.04,0000.02,0000.13,27.5,00.2,0663.4,34.7
2016-09-24T03:06:00Z,0000380,01000600,0001.03,0000.89,0000.47,0000.34,0000.41,-000.02,-000.02,0000.02,-000.25,27.5,00.1,0663.4,34.7
2016-09-24T03:07:00Z,0000380,01000600,0000.66,0001.15,0000.26,0000.50,0000.67,-000.08,0000.18,0000.13,-000.05,27.5,00.2,0663.4,34.7
2016-09-24T03:08:00Z,0000380,01000600,0000.14,0000.36,0000.33,0000.14,0000.05,0000.10,-000.01,-000.03,0000.24,27.5,00.2,0663.4,34.7
2016-09-24T03:09:00Z,0000380,01000600,0001.17,0000.79,-000.05,-000.24,0000.06,0000.05,-000.08,0000.01,0000.10,27.5,00.2,0663.4,34.7
2016-09-24T03:10:00Z,0000380,01000600,0001.41,0000.68,-000.06,0000.37,0000.16,0000.54,0000.11,0000.08,-000.03,27.5,00.2,0663.4,34.7
2016-09-24T03:11:00Z,0000380,01000600,-000.11,0000.22,-000.55,-000.05,0000.27,-000.14,-000.02,0000.04,-000.02,27.6,00.2,0663.4,34.7
2016-09-24T03:12:00Z,0000380,01000600,0000.92,0000.02,0000.33,0000.88,-000.10,0000.16,-000.07,-000.11,0000.04,27.6,00.2,0663.4,34.7